Simultaneous Nadir Overpasses (SNOs) Predictions

Prediction of SNOs between GOES-15 and METOP-B Satellite Orbit:

Table of predicted SNOs for the next 14.0 days since TLE Epoch: 1/18/2025
Index Date Time (GOES-15) GOES-15 Lat,Lon METOP-B Lat,Lon Distance(km) Time Diff (sec)
1 01/18/2025 16:50:14 0.01, 61.50 0.85, 65.40 442.83 80
2 01/20/2025 05:09:13 -0.01, 61.49 0.14, 60.78 80.63 80
3 01/21/2025 04:51:19 -0.01, 61.50 -0.97, 65.75 484.55 80
4 01/22/2025 17:10:26 0.01, 61.54 -0.09, 61.11 49.10 80
5 01/25/2025 05:06:10 -0.01, 61.56 0.01, 61.47 10.89 80
6 01/27/2025 17:04:42 0.00, 61.62 0.02, 61.80 20.22 80
7 01/30/2025 05:05:46 0.00, 61.67 -0.12, 62.16 55.61 80
8 01/31/2025 17:24:53 -0.00, 61.70 -0.90, 57.51 476.14 80
